www.pogodaiklimat.ru

Погода и климат >> Архив погоды >> Россия >> Краснодарский край >> Приморско-Ахтарск


АРХИВ ПОГОДЫ в Приморско-Ахтарске

Время (UTC), дата Ветер
(напр.,м/с)
 
Видим.   Явления Облачность Т
(С)
Тd
(С)
f
(%)
Тe
(С)
Тes
(С)
Комфортность P
(гПа)
Po
(гПа)
Тmin
(С)
Tmax
(С)
R
(мм)
R24
(мм)
S
(см)
12 17.09 СЗ 4
{10}
10 км 1/1 600 м
[Cu hum]
+19.9 +8.1 46 +21 +25 комфорт 1020.3 1019.8
15 17.09 СЗ 2 10 км ясно +19.8 +7.1 44 +21 +21 комфорт 1020.2 1019.8 +20.3
18 17.09 С 2 10 км ясно +19.8 +6.1 41 +21 +21 комфорт 1021.3 1020.8
21 17.09 С 2 10 км ясно +18.6 +6.1 44 +19 +19 тепло 1022.1 1021.6
00 18.09 штиль 0 10 км ясно +13.7 +6.8 63 +13 +13 по сезону 1022.1 1021.6
03 18.09 штиль 0 10 км ясно +12.8 +7.2 69 +12 +12 прохладно 1022.9 1022.4 +12.8
06 18.09 штиль 0 10 км ясно +19.0 +4.0 37 +19 +25 тепло 1023.8 1023.3
09 18.09 штиль 0 10 км ясно +19.8 +6.5 42 +20 +35 опасность
простуды
1024.0 1023.5
12 18.09 СЗ 2 10 км ясно +20.6 +7.1 42 +22 +29 комфорт 1023.2 1022.7
15 18.09 З 1 10 км ясно +19.0 +7.1 46 +21 +21 комфорт 1022.4 1021.9 +20.7
18 18.09 штиль 0 10 км 10/0
[Ci fib]
+16.3 +9.5 64 +16 +16 по сезону 1022.7 1022.2
21 18.09 штиль 0 10 км ясно +16.4 +11.8 74 +16 +16 по сезону 1022.5 1022.0
00 19.09 штиль 0 10 км ясно +16.7 +12.2 75 +17 +17 тепло 1022.5 1022.0
03 19.09 штиль 0 4000 м дымка ясно +13.8 +11.6 87 +13 +13 прохладно 1022.5 1022.0 +13.7
06 19.09 штиль 0 10 км ясно +20.7 +13.9 65 +23 +28 комфорт 1023.2 1022.8 +13.7
09 19.09 СЗ 2 10 км ясно +21.7 +13.7 60 +24 +35 комфорт 1023.3 1022.8
12 19.09 СЗ 2 10 км ясно +22.4 +12.9 55 +25 +32 комфорт 1022.5 1022.0
15 19.09 штиль 0 10 км ясно +20.6 +13.2 63 +23 +23 комфорт 1021.9 1021.4 +22.6
18 19.09 штиль 0 10 км ясно +17.9 +15.3 85 +18 +18 тепло 1022.3 1021.8
21 19.09 штиль 0 4000 м дымка ясно +16.0 +14.6 91 +16 +16 по сезону 1021.8 1021.3
00 20.09 штиль 0 4000 м дымка ясно +15.0 +13.9 93 +15 +15 по сезону 1021.5 1021.0
03 20.09 штиль 0 500 м туман ясно +13.7 +12.7 94 +13 +13 прохладно 1021.6 1021.1 +13.6
06 20.09 штиль 0 200 м туман ясно +15.9 +15.0 94 +16 +21 по сезону 1022.3 1021.8 +13.2
09 20.09 штиль 0 10 км {туман} ясно +23.2 +13.4 54 +26 +40 жарко 1021.7 1021.2
12 20.09 штиль 0 10 км {туман} ясно +23.5 +15.8 62 +27 +35 душно 1020.3 1019.8
15 20.09 штиль 0 10 км ясно +21.9 +13.9 60 +25 +25 комфорт 1019.4 1018.9 +23.6
18 20.09 штиль 0 10 км ясно +20.3 +16.9 81 +23 +23 комфорт 1019.4 1018.9
21 20.09 штиль 0 10 км ясно +18.4 +15.3 82 +19 +19 тепло 1018.9 1018.4
00 21.09 штиль 0 20 км дымка ясно +15.0 +13.4 90 +15 +15 по сезону 1018.4 1017.9
03 21.09 штиль 0 4000 м дымка ясно +14.7 +13.4 92 +14 +14 по сезону 1018.4 1017.9 +14.1
06 21.09 штиль 0 10 км ясно +21.3 +15.9 71 +25 +30 комфорт 1019.0 1018.5
09 21.09 штиль 0 10 км ясно +23.4 +17.0 67 +29 +42 душно 1019.0 1018.5
12 21.09 штиль 0 10 км ясно +24.8 +15.1 55 +28 +36 жарко 1018.4 1017.9
15 21.09 штиль 0 10 км ясно +23.2 +16.7 67 +28 +28 душно 1017.6 1017.1 +25.2
18 21.09 штиль 0 10 км ясно +22.2 +13.9 59 +25 +25 комфорт 1017.9 1017.4
21 21.09 штиль 0 10 км ясно +20.1 +11.8 59 +22 +22 комфорт 1017.9 1017.4
00 22.09 штиль 0 10 км ясно +19.7 +10.8 56 +21 +21 комфорт 1017.9 1017.4
03 22.09 штиль 0 10 км ясно +18.7 +10.9 60 +19 +19 тепло 1017.8 1017.4 +18.7
06 22.09 В 1 10 км 3/0
[Ci fib]
+22.3 +11.3 50 +24 +29 комфорт 1018.1 1017.6 +18.1
09 22.09 штиль 0 10 км ясно +28.0 +11.7 36 +29 +42 жарко 1017.7 1017.2
12 22.09 штиль 0 10 км ясно +27.6 +13.8 43 +30 +38 жарко 1016.3 1015.9
15 22.09 штиль 0 10 км ясно +23.3 +17.5 70 +29 +29 душно 1015.7 1015.2 +29.9
18 22.09 штиль 0 10 км ясно +20.3 +11.6 57 +22 +22 комфорт 1015.8 1015.3
21 22.09 штиль 0 10 км ясно +21.0 +10.7 52 +23 +23 комфорт 1015.2 1014.7
00 23.09 штиль 0 10 км ясно +18.1 +9.9 59 +18 +18 тепло 1014.6 1014.1
03 23.09 штиль 0 10 км ясно +14.2 +10.5 78 +14 +14 по сезону 1014.5 1014.0 +14.2
06 23.09 штиль 0 10 км ясно +21.7 +17.4 77 +26 +31 душно 1014.6 1014.1 +14.1
09 23.09 штиль 0 10 км 8/0
[Ci]
+25.6 +17.6 61 +30 +41 душно 1015.0 1014.5
12 23.09 З 2 10 км 10/0
[Ac As]
+23.1 +15.5 62 +27 +29 душно 1015.2 1014.7
15 23.09 СЗ 5-11
{11}
10 км 10/10 600 м
[Cb calv]
+19.7 +14.8 73 +21 +21 комфорт 1016.4 1015.9 +25.7
18 23.09 СЗ 3
{12}
10 км в посл. час ливневой дождь 10/10 600 м
[Cb calv]
+17.8 +13.2 74 +18 +18 тепло 1017.4 1016.9
21 23.09 С 3 10 км 9/9 600 м
[Sc]
+15.8 +10.3 70 +15 +15 по сезону 1019.1 1018.7
00 24.09 штиль 0 10 км ясно +14.6 +9.3 70 +14 +14 по сезону 1019.1 1018.6
03 24.09 штиль 0 10 км 1/0
[Ci fib]
+10.8 +8.4 85 +10 +10 холодно 1019.5 1019.0 +10.8 0.3
06 24.09 В 1 10 км 10/0
[Ci]
+15.2 +9.3 68 +16 +19 по сезону 1018.8 1018.3 +10.8

 

Местоположение метеостанции Приморско-Ахтарск (Краснодарский край, Россия): широта 46.03 долгота 38.15 высота над уровнем моря 4 м.

В архиве по умолчанию представлена погода в Приморско-Ахтарске за последнюю неделю. Архивные данные за месяц целиком и за предыдущие месяцы, начиная с января 2011 года, Вы можете получить, выбрав интересующий диапазон дат из раскрывающегося списка и нажав кнопку "Ввод!".


*Определитесь, кто Вы:
робот инопланетянин человек

Внимание! Время в таблицах - всемирное. Для получения местного времени необходимо прибавить поправку, которая в Приморско-Ахтарске равна 3 ч.

Смотрите также архив погоды в соседних городах и на ближайших метеорологических станциях:

Погода в Каневской (Краснодарский край, Россия) (63 км)
Погода в Тимашевске (Краснодарский край, Россия) (75 км)
Погода в Должанке (Краснодарский край, Россия) (79 км)
Погода в Славянске-на-Кубани (Краснодарский край, Россия) (83 км)
Погода в Ейске (Краснодарский край, Россия) (86 км)
Погода в Староминская (Краснодарский край, Россия) (87 км)
Погода в Темрюке (Краснодарский край, Россия) (99 км)
Погода в Маргаритово (Ростовская область, Россия) (114 км)
Погода в Кореновске (Краснодарский край, Россия) (121 км)
Погода в Мариуполе (Донецкая область, Украина) (122 км)

Пояснения к столбцам:

Ветер - указаны скорость ветра в м/с - средняя за 10 мин, порывы в срок и между сроками (в фигурных скобках) и направление, откуда дует ветер: С - северный, СВ - северо-восточный, В - восточный, ЮВ - юго-восточный, Ю - южный, ЮЗ - юго-западный, З - западный, СЗ - северо-западный.
Видимость - горизонтальная дальность видимости в метрах или километрах. При видимости от 1 до 10 км при отсутствии осадков обычно наблюдается дымка, при ухудшении видимости до 1 км и менее - туман. В сухую погоду видимость может ухудшаться дымом, пылью или мглою.
Явления - указаны атмосферные явления, наблюдавшиеся в срок или в последний час перед сроком; фигурными скобками обозначены явления, наблюдавшиеся между сроками (за 1-3 часа до срока); квадратными скобками обозначены град или гололедные отложения с указанием их диаметра в мм.
Облачность - указаны через наклонную черту общая и нижняя облачность в баллах и высота нижней границы облаков в метрах; квадратными скобками обозначены формы облаков: Ci - перистые, Cs - перисто-слоистые, Cc - перисто-кучевые, Ac - высококучевые, As - высокослоистые, Sc - слоисто-кучевые, Ns - слоисто-дождевые, Cu - кучевые, Cb - кучево-дождевые. Подробнее классификацию облаков см. в Атласе облаков (PDF).
T - Температура воздуха - температура, измеренная на высоте 2 м над землей.
Td - Температура точки росы - температура, при понижении до которой содержащийся в воздухе водяной пар достигнет насыщения.
f - Относительная влажность воздуха - влажноcть воздуха, измеренная на высоте 2 м над землей.
Te - Эффективная температура - температура, которую ощущает одетый по сезону человек в тени. Характеристика душности погоды. При расчете учитывается влияние влажности воздуха и скорости ветра на теплоощущения человека.
Tes - Эффективная температура на солнце - температура, которую ощущает человек, с поправкой на солнечный нагрев. Характеристика знойности погоды. Зависит от высоты солнца над горизонтом, облачности и скорости ветра. Ночью, в пасмурную погоду, а также при ветре 12 м/с и более поправка равна нулю.
P - Атмосферное давление - приведенное к уровню моря атмосферное давление.
Po - Атмосферное давление - измеренное на уровне метеостанции атмосферное давление.
Tmin - Минимальная температура - минимум температуры воздуха на высоте 2 м над землей.
Tmax - Максимальная температура - максимум температуры воздуха на высоте 2 м над землей.
R - Количество осадков - Количество выпавших осадков за период времени, мм. При наведении курсора мыши на число - период времени, за который выпало указанное количество осадков.
R24 - Количество осадков - Количество выпавших осадков за 24 часа, мм.
S - Снежный покров - Высота снежного покрова, см. При наведении курсора мыши на число - состояние снежного покрова и степень покрытия местности в баллах.